H1 CPF 2 NER 2024 9 26 9 270 01 glonass134 H2 1407501 9134 40315 2024 9 26 0 0 0 2024 9 29 23 45 0 900 1 1 0 0 0 1 H9 10 0 60579 0.00000 0 -23245578.700 -7793973.535 -7173068.314 10 0 60579 900.00000 0 -23916144.852 -8002660.500 -4092046.628 10 0 60579 1800.00000 0 -24241827.047 -8025380.673 -931906.829 10 0 60579 2700.00000 0 -24196529.264 -7908899.524 2246246.248 10 0 60579 3600.00000 0 -23766157.087 -7704704.785 5381002.472 10 0 60579 4500.00000 0 -22949284.062 -7466608.104 8411816.259 10 0 60579 5400.00000 0 -21757311.050 -7248259.608 11280157.797 10 0 60579 6300.00000 0 -20214112.190 -7100678.961 13930624.991 10 0 60579 7200.00000 0 -18355181.822 -7069905.528 16311996.245 10 0 60579 8100.00000 0 -16226316.885 -7194865.324 18378205.365 10 0 60579 9000.00000 0 -13881887.959 -7505543.540 20089221.225 10 0 60579 9900.00000 0 -11382768.721 -8021539.059 21411816.388 10 0 60579 10800.00000 0 -8794007.441 -8751061.995 22320210.643 10 0 60579 11700.00000 0 -6182334.597 -9690417.437 22796577.373 10 0 60579 12600.00000 0 -3613607.713 -10823998.867 22831402.725 10 0 60579 13500.00000 0 -1150297.382 -12124794.079 22423689.828 10 0 60579 14400.00000 0 1150882.728 -13555385.360 21581002.732 10 0 60579 15300.00000 0 3241104.312 -15069405.181 20319347.351 10 0 60579 16200.00000 0 5081223.014 -16613389.437 18662889.510 10 0 60579 17100.00000 0 6643171.885 -18128953.180 16643513.138 10 0 60579 18000.00000 0 7910890.634 -19555199.463 14300224.840 10 0 60579 18900.00000 0 8880750.620 -20831261.211 11678414.297 10 0 60579 19800.00000 0 9561456.513 -21898869.314 8828983.178 10 0 60579 20700.00000 0 9973427.669 -22704837.962 5807358.526 10 0 60579 21600.00000 0 10147684.608 -23203360.767 2672409.503 10 0 60579 22500.00000 0 10124287.529 -23358018.493 -514710.948 10 0 60579 23400.00000 0 9950393.515 -23143410.987 -3691775.686 10 0 60579 24300.00000 0 9678016.065 -22546341.701 -6796718.833 10 0 60579 25200.00000 0 9361583.881 -21566502.455 -9768870.761 10 0 60579 26100.00000 0 9055404.920 -20216627.687 -12550166.017 10 0 60579 27000.00000 0 8811145.956 -18522110.646 -15086298.235 10 0 60579 27900.00000 0 8675437.181 -16520097.414 -17327797.353 10 0 60579 28800.00000 0 8687705.690 -14258097.385 -19231006.431 10 0 60579 29700.00000 0 8878331.429 -11792169.701 -20758937.951 10 0 60579 30600.00000 0 9267204.692 -9184763.167 -21881992.540 10 0 60579 31500.00000 0 9862746.504 -6502301.746 -22578526.360 10 0 60579 32400.00000 0 10661432.853 -3812617.930 -22835257.021 10 0 60579 33300.00000 0 11647841.824 -1182342.123 -22647501.519 10 0 60579 34200.00000 0 12795220.244 1325642.825 -22019243.275 10 0 60579 35100.00000 0 14066544.301 3654576.349 -20963028.931 10 0 60579 36000.00000 0 15416027.927 5755926.653 -19499698.840 10 0 60579 36900.00000 0 16791014.118 7591143.303 -17657958.342 10 0 60579 37800.00000 0 18134168.717 9132985.727 -15473799.771 10 0 60579 38700.00000 0 19385884.020 10366375.496 -12989787.749 10 0 60579 39600.00000 0 20486791.340 11288740.295 -10254222.582 10 0 60579 40500.00000 0 21380277.660 11909838.652 -7320198.590 10 0 60579 41400.00000 0 22014901.801 12251075.915 -4244575.779 10 0 60579 42300.00000 0 22346610.148 12344342.772 -1086884.630 10 0 60579 43200.00000 0 22340660.534 12230426.975 2091815.370 10 0 60579 44100.00000 0 21973175.198 11957066.158 5230102.249 10 0 60579 45000.00000 0 21232259.035 11576723.960 8267361.711 10 0 60579 45900.00000 0 20118637.253 11144182.637 11144939.711 10 0 60579 46800.00000 0 18645786.110 10714052.521 13807256.780 10 0 60579 47700.00000 0 16839550.983 10338301.811 16202864.119 10 0 60579 48600.00000 0 14737266.723 10063909.187 18285422.740 10 0 60579 49500.00000 0 12386415.289 9930736.631 20014588.192 10 0 60579 50400.00000 0 9842874.364 9969710.960 21356784.966 10 0 60579 51300.00000 0 7168827.143 10201390.100 22285856.471 10 0 60579 52200.00000 0 4430417.314 10634974.641 22783578.373 10 0 60579 53100.00000 0 1695243.836 11267807.309 22840025.163 10 0 60579 54000.00000 0 -970203.042 12085383.173 22453782.096 10 0 60579 54900.00000 0 -3503060.136 13061872.617 21631997.039 10 0 60579 55800.00000 0 -5846460.852 14161137.934 20390269.400 10 0 60579 56700.00000 0 -7951658.110 15338203.760 18752376.074 10 0 60579 57600.00000 0 -9779812.264 16541122.305 16749837.327 10 0 60579 58500.00000 0 -11303368.839 17713157.149 14421328.679 10 0 60579 59400.00000 0 -12506967.409 18795195.169 11811948.067 10 0 60579 60300.00000 0 -13387842.265 19728285.552 8972350.825 10 0 60579 61200.00000 0 -13955696.746 20456198.395 5957768.273 10 0 60579 62100.00000 0 -14232055.530 20927893.537 2826928.662 10 0 60579 63000.00000 0 -14249121.710 21099793.249 -359098.079 10 0 60579 63900.00000 0 -14048187.098 20937760.089 -3538108.070 10 0 60579 64800.00000 0 -13677663.915 20418693.485 -6647998.315 10 0 60579 65700.00000 0 -13190822.820 19531674.864 -9628002.378 10 0 60579 66600.00000 0 -12643335.297 18278610.632 -12419900.265 10 0 60579 67500.00000 0 -12090727.092 16674344.200 -14969176.505 10 0 60579 68400.00000 0 -11585853.216 14746231.441 -17226101.714 10 0 60579 69300.00000 0 -11176503.911 12533197.311 -19146714.771 10 0 60579 70200.00000 0 -10903244.849 10084313.905 -20693685.416 10 0 60579 71100.00000 0 -10797584.234 7456960.669 -21837040.004 10 0 60579 72000.00000 0 -10880544.790 4714645.244 -22554736.509 10 0 60579 72900.00000 0 -11161700.648 1924577.437 -22833078.468 10 0 60579 73800.00000 0 -11638718.778 -844901.328 -22666961.159 10 0 60579 74700.00000 0 -12297422.745 -3526925.226 -22059946.961 10 0 60579 75600.00000 0 -13112374.195 -6058639.442 -21024170.337 10 0 60579 76500.00000 0 -14047945.597 -8383559.070 -19580076.268 10 0 60579 77400.00000 0 -15059837.191 -10453654.945 -17755999.069 10 0 60579 78300.00000 0 -16096972.781 -12231081.923 -15587591.410 10 0 60579 79200.00000 0 -17103693.557 -13689480.549 -13117115.953 10 0 60579 80100.00000 0 -18022157.186 -14814801.079 -10392614.344 10 0 60579 81000.00000 0 -18794841.361 -15605618.851 -7466970.287 10 0 60579 81900.00000 0 -19367047.220 -16072931.053 -4396885.008 10 0 60579 82800.00000 0 -19689298.433 -16239446.242 -1241784.859 10 0 60579 83700.00000 0 -19719536.535 -16138398.656 1937318.368 10 0 60579 84600.00000 0 -19425021.703 -15811938.598 5078993.233 10 0 60579 85500.00000 0 -18783860.555 -15309167.249 8122559.119 10 0 60580 0.00000 0 -17786097.988 -14683898.502 11009239.900 10 0 60580 900.00000 0 -16434327.224 -13992240.851 13683281.601 10 0 60580 1800.00000 0 -14743793.863 -13290100.642 16093010.232 10 0 60580 2700.00000 0 -12741986.978 -12630708.963 18191816.133 10 0 60580 3600.00000 0 -10467734.030 -12062275.372 19939043.432 10 0 60580 4500.00000 0 -7969834.719 -11625865.305 21300770.182 10 0 60580 5400.00000 0 -5305287.983 -11353589.409 22250464.725 10 0 60580 6300.00000 0 -2537182.863 -11267180.436 22769505.990 10 0 60580 7200.00000 0 267662.180 -11377017.817 22847557.446 10 0 60580 8100.00000 0 3041216.432 -11681641.932 22482786.779 10 0 60580 9000.00000 0 5716808.556 -12167780.255 21681925.668 10 0 60580 9900.00000 0 8231647.771 -12810886.553 20460166.710 10 0 60580 10800.00000 0 10529190.960 -13576173.054 18840897.275 10 0 60580 11700.00000 0 12561257.615 -14420094.757 16855273.077 10 0 60580 12600.00000 0 14289804.086 -15292225.657 14541637.341 10 0 60580 13500.00000 0 15688282.131 -16137449.544 11944794.707 10 0 60580 14400.00000 0 16742523.578 -16898373.867 9115152.266 10 0 60580 15300.00000 0 17451112.532 -17517864.712 6107743.342 10 0 60580 16200.00000 0 17825228.176 -17941594.825 2981152.672 10 0 60580 17100.00000 0 17887963.863 -18120495.088 -203635.705 10 0 60580 18000.00000 0 17673150.919 -18013003.299 -3384444.219 10 0 60580 18900.00000 0 17223737.249 -17587012.205 -6499135.903 10 0 60580 19800.00000 0 16589790.478 -16821431.504 -9486850.654 10 0 60580 20700.00000 0 15826211.941 -15707295.042 -12289216.984 10 0 60580 21600.00000 0 14990260.600 -14248364.298 -14851513.214 10 0 60580 22500.00000 0 14138994.205 -12461201.153 -17123753.296 10 0 60580 23400.00000 0 13326738.448 -10374706.211 -19061674.315 10 0 60580 24300.00000 0 12602693.252 -8029142.107 -20627605.305 10 0 60580 25200.00000 0 12008778.859 -5474683.461 -21791199.982 10 0 60580 26100.00000 0 11577813.438 -2769555.369 -22530019.328 10 0 60580 27000.00000 0 11332099.027 22160.443 -22829953.523 10 0 60580 27900.00000 0 11282474.512 2832959.010 -22685476.378 10 0 60580 28800.00000 0 11427873.987 5594482.710 -22099729.001 10 0 60580 29700.00000 0 11755406.993 8240121.670 -21084433.021 10 0 60580 30600.00000 0 12240954.916 10707536.133 -19659636.996 10 0 60580 31500.00000 0 12850256.092 12940996.902 -17853302.797 10 0 60580 32400.00000 0 13540431.800 14893448.330 -15700741.670 10 0 60580 33300.00000 0 14261887.251 16528210.409 -13243912.251 10 0 60580 34200.00000 0 14960506.385 17820251.934 -10530595.175 10 0 60580 35100.00000 0 15580047.582 18756984.809 -7613460.909 10 0 60580 36000.00000 0 16064639.578 19338549.489 -4549049.075 10 0 60580 36900.00000 0 16361273.143 19577582.532 -1396678.925 10 0 60580 37800.00000 0 16422184.764 19498478.474 1782688.491 10 0 60580 38700.00000 0 16207033.344 19136178.786 4927615.288 10 0 60580 39600.00000 0 15684779.716 18534539.772 7977357.440 10 0 60580 40500.00000 0 14835191.123 17744348.246 10873019.971 10 0 60580 41400.00000 0 13649908.236 16821067.810 13558675.871 10 0 60580 42300.00000 0 12133030.099 15822409.327 15982428.719 10 0 60580 43200.00000 0 10301191.965 14805826.082 18097400.144 10 0 60580 44100.00000 0 8183131.432 13826037.033 19862624.516 10 0 60580 45000.00000 0 5818758.974 12932680.390 21243834.810 10 0 60580 45900.00000 0 3257768.998 12168194.513 22214125.351 10 0 60580 46800.00000 0 557846.125 11566014.018 22754479.027 10 0 60580 47700.00000 0 -2217461.937 11149156.428 22854148.619 10 0 60580 48600.00000 0 -5001119.762 10929258.973 22510884.157 10 0 60580 49500.00000 0 -7725132.074 10906107.042 21731000.603 10 0 60580 50400.00000 0 -10323121.395 11067675.708 20529282.750 10 0 60580 51300.00000 0 -12732849.986 11390684.713 18928726.993 10 0 60580 52200.00000 0 -14898581.951 11841645.783 16960122.609 10 0 60580 53100.00000 0 -16773187.049 12378360.391 14661478.267 10 0 60580 54000.00000 0 -18319897.662 12951806.569 12077302.766 10 0 60580 54900.00000 0 -19513644.180 13508336.297 9257752.199 10 0 60580 55800.00000 0 -20341911.195 13992090.934 6257659.041 10 0 60580 56700.00000 0 -20805076.978 14347531.936 3135461.630 10 0 60580 57600.00000 0 -20916220.585 14521978.294 -47944.742 10 0 60580 58500.00000 0 -20700403.880 14468040.969 -3230411.606 10 0 60580 59400.00000 0 -20193458.622 14145848.517 -6349770.731 10 0 60580 60300.00000 0 -19440330.473 13524966.623 -9345070.931 10 0 60580 61200.00000 0 -18493051.281 12585927.406 -12157791.650 10 0 60580 62100.00000 0 -17408427.334 11321301.258 -14733007.223 10 0 60580 63000.00000 0 -16245543.646 9736263.971 -17020476.902 10 0 60580 63900.00000 0 -15063192.198 7848633.992 -18975637.619 10 0 60580 64800.00000 0 -13917334.973 5688377.740 -20560478.977 10 0 60580 65700.00000 0 -12858710.573 3296603.990 -21744282.949 10 0 60580 66600.00000 0 -11930686.417 724090.246 -22504214.004 10 0 60580 67500.00000 0 -11167447.175 -1970596.082 -22825749.050 10 0 60580 68400.00000 0 -10592595.047 -4723302.056 -22702940.106 10 0 60580 69300.00000 0 -10218219.313 -7466726.094 -22138506.315 10 0 60580 70200.00000 0 -10044472.141 -10132985.202 -21143755.414 10 0 60580 71100.00000 0 -10059665.918 -12656205.590 -19738338.144 10 0 60580 72000.00000 0 -10240885.287 -14975029.433 -17949842.264 10 0 60580 72900.00000 0 -10555085.465 -17034934.746 -15813235.701 10 0 60580 73800.00000 0 -10960628.331 -18790273.759 -13370171.005 10 0 60580 74700.00000 0 -11409189.783 -20205947.316 -10668165.653 10 0 60580 75600.00000 0 -11847956.905 -21258648.319 -7759674.706 10 0 60580 76500.00000 0 -12222021.878 -21937625.278 -4701074.022 10 0 60580 77400.00000 0 -12476871.969 -22244936.908 -1551573.628 10 0 60580 78300.00000 0 -12560871.349 -22195189.645 1627918.245 10 0 60580 79200.00000 0 -12427631.332 -21814771.093 4775959.322 10 0 60580 80100.00000 0 -12038170.442 -21140612.829 7831744.226 10 0 60580 81000.00000 0 -11362774.650 -20218535.033 10736260.924 10 0 60580 81900.00000 0 -10382480.476 -19101242.168 13433411.917 10 0 60580 82800.00000 0 -9090119.105 -17846052.899 15871080.079 10 0 60580 83700.00000 0 -7490877.518 -16512458.019 18002120.207 10 0 60580 84600.00000 0 -5602352.142 -15159606.954 19785258.649 10 0 60580 85500.00000 0 -3454091.054 -13843826.262 21185884.834 10 0 60581 0.00000 0 -1086641.621 -12616272.387 22176720.277 10 0 60581 900.00000 0 1449861.020 -11520814.821 22738353.010 10 0 60581 1800.00000 0 4097506.009 -10592239.009 22859625.721 10 0 60581 2700.00000 0 6792751.554 -9854841.757 22537871.197 10 0 60581 3600.00000 0 9468813.421 -9321480.006 21778987.807 10 0 60581 4500.00000 0 12058201.796 -8993113.239 20597352.377 10 0 60581 5400.00000 0 14495302.869 -8858860.343 19015569.878 10 0 60581 6300.00000 0 16718898.950 -8896570.422 17064062.403 10 0 60581 7200.00000 0 18674522.440 -9073885.457 14780503.003 10 0 60581 8100.00000 0 20316544.926 -9349751.768 12209103.218 10 0 60581 9000.00000 0 21609912.877 -9676317.735 9399766.352 10 0 60581 9900.00000 0 22531455.577 -10001138.177 6407121.850 10 0 60581 10800.00000 0 23070708.522 -10269591.839 3289459.103 10 0 60581 11700.00000 0 23230215.979 -10427408.512 107581.780 10 0 60581 12600.00000 0 23025298.528 -10423196.778 -3076393.857 10 0 60581 13500.00000 0 22483294.721 -10210862.674 -6200271.539 10 0 60581 14400.00000 0 21642308.816 -9751813.864 -9203012.238 10 0 60581 15300.00000 0 20549518.301 -9016852.902 -12025949.470 10 0 60581 16200.00000 0 19259114.157 -7987676.638 -14613956.525 10 0 60581 17100.00000 0 17829962.894 -6657916.018 -16916540.646 10 0 60581 18000.00000 0 16323091.302 -5033670.676 -18888840.990 10 0 60581 18900.00000 0 14799102.280 -3133514.814 -20492509.780 10 0 60581 19800.00000 0 13315632.557 -987973.888 -21696458.902 10 0 60581 20700.00000 0 11924960.657 1361505.515 -22477457.581 10 0 60581 21600.00000 0 10671866.281 3864048.560 -22820570.285 10 0 60581 22500.00000 0 9591830.684 6461244.266 -22719427.638 10 0 60581 23400.00000 0 8709652.436 9089356.668 -22176326.758 10 0 60581 24300.00000 0 8038534.646 11681761.915 -21202160.990 10 0 60581 25200.00000 0 7579679.336 14171509.345 -19816182.344 10 0 60581 26100.00000 0 7322403.044 16493899.919 -18045603.139 10 0 60581 27000.00000 0 7244765.715 18588975.459 -15925046.279 10 0 60581 27900.00000 0 7314683.584 20403816.419 -13495856.175 10 0 60581 28800.00000 0 7491476.774 21894554.386 -10805284.761 10 0 60581 29700.00000 0 7727784.641 23028017.834 -7905569.013 10 0 60581 30600.00000 0 7971767.000 23782945.072 -4852918.104 10 0 60581 31500.00000 0 8169498.099 24150716.403 -1706429.742 10 0 60581 32400.00000 0 8267452.615 24135577.353 1473043.856 10 0 60581 33300.00000 0 8214979.679 23754345.712 4624059.231 10 0 60581 34200.00000 0 7966661.735 23035616.135 7685752.757 10 0 60581 35100.00000 0 7484460.119 22018496.416 10598998.291 10 0 60581 36000.00000 0 6739558.093 20750928.415 13307530.558 10 0 60581 36900.00000 0 5713824.585 19287663.298 15759014.158 10 0 60581 37800.00000 0 4400837.296 17687974.567 17906039.194 10 0 60581 38700.00000 0 2806421.725 16013202.837 19707025.797 10 0 60581 39600.00000 0 948682.191 14324233.061 21127021.328 10 0 60581 40500.00000 0 -1142478.528 12679007.631 22138375.757 10 0 60581 41400.00000 0 -3426333.671 11130177.464 22721282.637 10 0 60581 42300.00000 0 -5852763.652 9722987.806 22864175.111 10 0 60581 43200.00000 0 -8364087.760 8493486.227 22563968.611 10 0 60581 44100.00000 0 -10897223.594 7467127.512 21826144.313 10 0 60581 45000.00000 0 -13386087.364 6657834.263 20664669.973 10 0 60581 45900.00000 0 -15764137.684 6067553.527 19101757.539 10 0 60581 46800.00000 0 -17966958.551 5686329.520 17167459.833 10 0 60581 47700.00000 0 -19934774.583 5492890.982 14899111.780 10 0 60581 48600.00000 0 -21614793.364 5455730.059 12340624.799 10 0 60581 49500.00000 0 -22963275.965 5534628.492 9541646.304 10 0 60581 50400.00000 0 -23947247.286 5682567.411 6556599.467 10 0 60581 51300.00000 0 -24545772.442 5847939.977 3443621.447 10 0 60581 52200.00000 0 -24750743.484 5976972.393 263421.067 10 0 60581 53100.00000 0 -24567141.479 6016249.082 -2921920.745 10 0 60581 54000.00000 0 -24012761.583 5915232.659 -6050182.646 10 0 60581 54900.00000 0 -23117412.030 5628669.069 -9060240.545 10 0 60581 55800.00000 0 -21921621.050 5118772.896 -11893284.593 10 0 60581 56700.00000 0 -20474907.173 4357097.345 -14493989.335 10 0 60581 57600.00000 0 -18833687.517 3326007.101 -16811611.973 10 0 60581 58500.00000 0 -17058914.278 2019689.802 -18800995.482 10 0 60581 59400.00000 0 -15213541.153 444662.050 -20423455.832 10 0 60581 60300.00000 0 -13359928.327 -1380251.960 -21647535.470 10 0 60581 61200.00000 0 -11557296.687 -3424468.226 -22449608.503 10 0 60581 62100.00000 0 -9859339.033 -5646693.515 -22814326.576 10 0 60581 63000.00000 0 -8312088.502 -7996433.717 -22734898.053 10 0 60581 63900.00000 0 -6952132.730 -10415895.737 -22213196.742 10 0 60581 64800.00000 0 -5805246.785 -12842202.393 -21259699.931 10 0 60581 65700.00000 0 -4885499.690 -15209827.182 -19893258.930 10 0 60581 66600.00000 0 -4194868.945 -17453147.019 -18140708.431 10 0 60581 67500.00000 0 -3723375.931 -19509006.837 -16036323.968 10 0 60581 68400.00000 0 -3449733.227 -21319190.032 -13621139.398 10 0 60581 69300.00000 0 -3342473.684 -22832693.163 -10942138.689 10 0 60581 70200.00000 0 -3361511.261 -24007711.969 -8051338.374 10 0 60581 71100.00000 0 -3460066.160 -24813258.076 -5004778.691 10 0 60581 72000.00000 0 -3586872.071 -25230341.217 -1861442.899 10 0 60581 72900.00000 0 -3688572.214 -25252669.910 1317874.802 10 0 60581 73800.00000 0 -3712203.489 -24886843.305 4471731.646 10 0 60581 74700.00000 0 -3607664.847 -24152027.728 7539207.561 10 0 60581 75600.00000 0 -3330066.960 -23079132.420 10461064.021 10 0 60581 76500.00000 0 -2841865.417 -21709519.190 13180869.634 10 0 60581 77400.00000 0 -2114688.609 -20093299.489 15646072.308 10 0 60581 78300.00000 0 -1130784.008 -18287288.969 17808998.923 10 0 60581 79200.00000 0 115977.968 -16352703.312 19627764.732 10 0 60581 80100.00000 0 1619585.450 -14352689.507 21067076.165 10 0 60581 81000.00000 0 3361875.271 -12349793.426 22098912.497 10 0 60581 81900.00000 0 5313034.605 -10403467.168 22703073.670 10 0 60581 82800.00000 0 7432596.046 -8567718.361 22867583.590 10 0 60581 83700.00000 0 9670888.011 -6888998.061 22588940.496 10 0 60581 84600.00000 0 11970883.447 -5404414.622 21872208.286 10 0 60581 85500.00000 0 14270373.061 -4140348.019 20730945.328 10 0 60582 0.00000 0 16504375.128 -3111523.103 19186970.137 10 0 60582 900.00000 0 18607684.650 -2320581.117 17269965.193 10 0 60582 1800.00000 0 20517453.709 -1758170.062 15016926.354 10 0 60582 2700.00000 0 22175699.426 -1403549.745 12471463.595 10 0 60582 3600.00000 0 23531630.906 -1225688.699 9682966.805 10 0 60582 4500.00000 0 24543697.364 -1184807.011 6705650.924 10 0 60582 5400.00000 0 25181269.249 -1234300.200 3597498.609 10 0 60582 6300.00000 0 25425879.415 -1322962.263 419121.265 10 0 60582 7200.00000 0 25271969.834 -1397412.441 -2767438.303 10 0 60582 8100.00000 0 24727110.533 -1404620.814 -5899936.622 10 0 60582 9000.00000 0 23811680.240 -1294423.042 -8917167.501 10 0 60582 9900.00000 0 22558021.692 -1021914.706 -11760180.622 10 0 60582 10800.00000 0 21009107.553 -549620.775 -14373454.511 10 0 60582 11700.00000 0 19216774.204 150654.474 -16705998.834 10 0 60582 12600.00000 0 17239599.451 1096377.615 -18712362.618 10 0 60582 13500.00000 0 15140515.440 2293299.270 -20353527.531 10 0 60582 14400.00000 0 12984259.050 3734972.911 -21597668.239 10 0 60582 15300.00000 0 10834768.578 5402799.720 -22420765.078 10 0 60582 16200.00000 0 8752637.008 7266597.224 -22807057.892 10 0 60582 17100.00000 0 6792728.950 9285666.953 -22749333.454 10 0 60582 18000.00000 0 5002060.540 11410315.184 -22249042.532 10 0 60582 18900.00000 0 3418029.576 13583761.936 -21316246.230 10 0 60582 19800.00000 0 2067067.724 15744357.399 -19969394.604 10 0 60582 20700.00000 0 963768.288 17828012.492 -18234943.723 10 0 60582 21600.00000 0 110522.735 19770741.912 -16146820.349 10 0 60582 22500.00000 0 -502322.296 21511213.889 -13745745.969 10 0 60582 23400.00000 0 -895797.430 22993201.152 -11078434.403 10 0 60582 24300.00000 0 -1101163.472 24167832.197 -8196679.224 10 0 60582 25200.00000 0 -1158335.452 24995550.692 -5156348.930 10 0 60582 26100.00000 0 -1113945.761 25447703.157 -2016309.313 10 0 60582 27000.00000 0 -1019128.877 25507690.676 1162706.604 10 0 60582 27900.00000 0 -927121.198 25171638.371 4319259.976 10 0 60582 28800.00000 0 -890776.649 24448556.210 7392377.484 10 0 60582 29700.00000 0 -960101.865 23359985.429 10322711.312 10 0 60582 30600.00000 0 -1179913.614 21939145.750 13053666.878 10 0 60582 31500.00000 0 -1587715.970 20229618.698 15532478.098 10 0 60582 32400.00000 0 -2211885.626 18283621.011 17711211.066 10 0 60582 33300.00000 0 -3070241.267 16159938.598 19547678.293 10 0 60582 34200.00000 0 -4169057.286 13921605.151 21006247.101 10 0 60582 35100.00000 0 -5502564.273 11633419.841 22058527.534 10 0 60582 36000.00000 0 -7052958.993 9359405.104 22683926.987 10 0 60582 36900.00000 0 -8790925.969 7160308.234 22870060.777 10 0 60582 37800.00000 0 -10676651.922 5091248.981 22613010.109 10 0 60582 38700.00000 0 -12661294.048 3199609.887 21917421.248 10 0 60582 39600.00000 0 -14688844.179 1523256.685 20796442.266 10 0 60582 40500.00000 0 -16698314.011 89163.048 19271496.470 10 0 60582 41400.00000 0 -18626152.615 -1087502.279 17371894.538 10 0 60582 42300.00000 0 -20408796.812 -2003786.661 15134290.517 10 0 60582 43200.00000 0 -21985248.387 -2668844.586 12601989.988 10 0 60582 44100.00000 0 -23299569.919 -3103311.840 9824122.035 10 0 60582 45000.00000 0 -24303193.317 -3338188.207 6854689.870 10 0 60582 45900.00000 0 -24956942.175 -3413275.358 3751518.034 10 0 60582 46800.00000 0 -25232680.527 -3375236.139 575116.896 10 0 60582 47700.00000 0 -25114516.036 -3275358.331 -2612512.405 10 0 60582 48600.00000 0 -24599504.604 -3167119.296 -5749107.646 10 0 60582 49500.00000 0 -23697824.788 -3103657.091 -8773383.734 10 0 60582 50400.00000 0 -22432413.520 -3135258.011 -11626252.813 10 0 60582 51300.00000 0 -20838078.102 -3306970.024 -14252000.028 10 0 60582 52200.00000 0 -18960122.321 -3656446.053 -16599389.773 10 0 60582 53100.00000 0 -16852545.664 -4212110.879 -18622678.940 10 0 60582 54000.00000 0 -14575892.988 -4991731.084 -20282516.197 10 0 60582 54900.00000 0 -12194846.767 -6001449.612 -21546709.134 10 0 60582 55800.00000 0 -9775664.674 -7235326.128 -22390844.406 10 0 60582 56700.00000 0 -7383571.180 -8675402.247 -22798749.527 10 0 60582 57600.00000 0 -5080213.025 -10292288.106 -22762788.566 10 0 60582 58500.00000 0 -2921284.871 -12046244.460 -22283987.626 10 0 60582 59400.00000 0 -954423.367 -13888713.542 -21371989.572 10 0 60582 60300.00000 0 782544.269 -15764233.330 -20044840.816 10 0 60582 61200.00000 0 2262926.562 -17612654.004 -18328616.187 10 0 60582 62100.00000 0 3472016.717 -19371563.301 -16256890.901 10 0 60582 63000.00000 0 4407432.202 -20978819.210 -13870071.229 10 0 60582 63900.00000 0 5078934.268 -22375084.582 -11214598.005 10 0 60582 64800.00000 0 5507738.351 -23506258.614 -8342039.051 10 0 60582 65700.00000 0 5725347.145 -24325704.966 -5308088.450 10 0 60582 66600.00000 0 5771957.646 -24796184.977 -2171491.988 10 0 60582 67500.00000 0 5694510.642 -24891416.967 1007080.859 10 0 60582 68400.00000 0 5544465.453 -24597198.135 4166197.363 10 0 60582 69300.00000 0 5375393.614 -23912043.605 7244832.960 10 0 60582 70200.00000 0 5240492.226 -22847316.967 10183532.359 10 0 60582 71100.00000 0 5190120.672 -21426847.293 12925539.399 10 0 60582 72000.00000 0 5269463.180 -19686048.463 15417875.411 10 0 60582 72900.00000 0 5516414.450 -17670576.672 17612346.877 10 0 60582 73800.00000 0 5959776.414 -15434580.549 19466464.491 10 0 60582 74700.00000 0 6617841.588 -13038614.807 20944257.123 10 0 60582 75600.00000 0 7497422.867 -10547301.825 22016965.960 10 0 60582 76500.00000 0 8593371.623 -8026835.911 22663605.944 10 0 60582 77400.00000 0 9888606.195 -5542431.558 22871383.615 10 0 60582 78300.00000 0 11354652.185 -3155819.597 22635962.705 10 0 60582 79200.00000 0 12952674.983 -922893.678 21961571.183 10 0 60582 80100.00000 0 14634964.524 1108396.042 20860945.957 10 0 60582 81000.00000 0 16346813.336 2899814.698 19355114.241 10 0 60582 81900.00000 0 18028711.945 4424205.872 17473013.443 10 0 60582 82800.00000 0 19618771.768 5666388.344 15250954.553 10 0 60582 83700.00000 0 21055275.057 6623547.800 12731937.245 10 0 60582 84600.00000 0 22279245.109 7305105.830 9964828.103 10 0 60582 85500.00000 0 23236927.915 7732070.590 7003416.717 99